sat.trackr.live / text

‹ back to catalog

STARLINK-3133

NORAD 49416 · 2021-104J

PAYLOAD ACTIVE UNKNOWN

§ Identity

Operator
Country
US
Launch date
2021-11-13
Launch site
AFETR
Launch vehicle
Mass (kg)
RCS (m²)

Purposes: comms

External: N2YO · Heavens-Above · Gunter

§ Orbital elements

Epoch: 2026-09-09T21:50:14.012160Z

Period
93.85 min
Inclination
53.1600°
Eccentricity
0.0001290
Mean motion
15.34389270 rev/d
Perigee alt
461.9 km
Apogee alt
463.6 km
Semi-major
6,840.9 km
B*
1.8659e-5
RAAN
110.8806°
Arg perigee
91.3233°
Mean anomaly
268.7917°
Rev number
26,659

§ Raw data

STARLINK-31331 49416U 21104J   26252.90988440  .00000254  00000+0  18659-4 0  99942 49416  53.1600 110.8806 0001290  91.3233 268.7917 15.34389270266598

JSON: /api/v1/satellites/49416 · /tle

For live sub-satellite position, see the globe view (requires WebGL).

§ Visibility from observer

Set your observer location to see the next 7 days of passes ≥ 10°. The values pass through the URL so the page stays shareable.

No JS? Fill the form by hand. The geolocation button needs JavaScript.